TimePDT,TemperatureF,Dew PointF,Humidity,Sea Level PressureIn,VisibilityMPH,Wind Direction,Wind SpeedMPH,Gust SpeedMPH,PrecipitationIn,Events,Conditions,WindDirDegrees,DateUTC
12:54 AM,57.0,51.1,81,29.98,10.0,Calm,Calm,-,N/A,,Clear,0,2013-08-06 07:54:00
1:54 AM,55.0,51.1,86,29.99,10.0,Calm,Calm,-,N/A,,Clear,0,2013-08-06 08:54:00
2:54 AM,52.0,48.9,89,29.99,10.0,Calm,Calm,-,N/A,,Clear,0,2013-08-06 09:54:00
3:54 AM,51.1,48.9,92,29.99,10.0,SSW,3.5,-,N/A,,Clear,200,2013-08-06 10:54:00
4:54 AM,50.0,48.0,93,29.99,10.0,SSW,3.5,-,N/A,,Clear,200,2013-08-06 11:54:00
5:20 AM,48.9,48.0,97,30.00,9.0,SSW,4.6,-,N/A,,Scattered Clouds,200,2013-08-06 12:20:00
5:28 AM,50.0,48.9,96,30.00,2.5,SSW,3.5,-,N/A,,Mostly Cloudy,200,2013-08-06 12:28:00
5:31 AM,50.0,48.9,96,30.00,1.2,SSW,3.5,-,N/A,,Mostly Cloudy,200,2013-08-06 12:31:00
5:36 AM,50.0,48.9,96,30.00,0.8,SSW,3.5,-,N/A,,Mostly Cloudy,200,2013-08-06 12:36:00
5:49 AM,50.0,48.2,94,30.00,1.5,WSW,3.5,-,N/A,,Overcast,240,2013-08-06 12:49:00
5:54 AM,50.0,48.9,96,30.00,1.5,SW,3.5,-,N/A,,Overcast,230,2013-08-06 12:54:00
5:59 AM,50.0,48.9,96,30.00,0.8,SW,4.6,-,N/A,,Overcast,220,2013-08-06 12:59:00
6:25 AM,50.0,50.0,100,30.01,0.2,Calm,Calm,-,N/A,Fog,Fog,0,2013-08-06 13:25:00
6:54 AM,50.0,50.0,100,30.01,0.2,SW,4.6,-,N/A,Fog,Fog,220,2013-08-06 13:54:00
7:35 AM,51.1,51.1,100,30.02,1.0,West,3.5,-,N/A,,Overcast,260,2013-08-06 14:35:00
7:54 AM,51.1,51.1,100,30.03,1.0,Calm,Calm,-,N/A,,Overcast,0,2013-08-06 14:54:00
8:54 AM,53.1,52.0,96,30.03,4.0,South,4.6,-,N/A,,Mostly Cloudy,180,2013-08-06 15:54:00
9:04 AM,53.1,52.0,96,30.03,10.0,Variable,3.5,-,N/A,,Mostly Cloudy,0,2013-08-06 16:04:00
9:12 AM,54.0,52.0,93,30.03,10.0,Variable,5.8,-,N/A,,Scattered Clouds,0,2013-08-06 16:12:00
9:54 AM,59.0,52.0,78,30.03,10.0,West,5.8,-,N/A,,Partly Cloudy,270,2013-08-06 16:54:00
10:54 AM,66.0,53.1,63,30.01,10.0,Calm,Calm,-,N/A,,Clear,0,2013-08-06 17:54:00
11:54 AM,68.0,53.1,59,30.01,10.0,Calm,Calm,-,N/A,,Clear,0,2013-08-06 18:54:00
12:54 PM,77.0,54.0,45,29.99,10.0,NE,3.5,-,N/A,,Clear,50,2013-08-06 19:54:00
1:54 PM,82.0,55.0,39,29.98,10.0,SSE,4.6,-,N/A,,Clear,160,2013-08-06 20:54:00
2:54 PM,84.9,55.9,37,29.96,10.0,North,5.8,-,N/A,,Clear,10,2013-08-06 21:54:00
3:54 PM,87.1,57.0,36,29.95,10.0,North,-9999.0,-,N/A,,Clear,0,2013-08-06 22:54:00
4:54 PM,87.1,57.0,36,29.94,10.0,North,6.9,-,N/A,,Clear,10,2013-08-06 23:54:00
5:54 PM,86.0,53.1,32,29.93,10.0,NNE,9.2,-,N/A,,Clear,30,2013-08-07 00:54:00
6:54 PM,84.0,43.0,24,29.92,10.0,NW,8.1,-,N/A,,Clear,320,2013-08-07 01:54:00
7:54 PM,80.1,41.0,25,29.92,10.0,North,5.8,-,N/A,,Clear,360,2013-08-07 02:54:00
8:54 PM,73.0,48.0,41,29.94,10.0,South,3.5,-,N/A,,Clear,180,2013-08-07 03:54:00
9:54 PM,66.0,50.0,56,29.95,10.0,South,3.5,-,N/A,,Clear,180,2013-08-07 04:54:00
10:54 PM,64.0,53.1,67,29.96,10.0,SE,4.6,-,N/A,,Clear,130,2013-08-07 05:54:00
11:54 PM,59.0,53.1,81,29.97,10.0,SSE,3.5,-,N/A,,Clear,150,2013-08-07 06:54:00